Regional Weather Roundup
Issued by NWS Cleveland, OH

Home | Current Version | Previous Version | Graphics & Text | Print | Product List | Glossary On
Versions: 1 2 3 4 5 6 7 8 9 10 11 12 13 14 15 16 17 18 19 20 21 22 23 24 25 26 27 28 29 30 31 32 33 34 35 36 37 38 39 40 41 42 43 44 45 46 47 48 49 50
000
ASUS41 KCLE 230810
RWRCLE
OHIO REGIONAL WEATHER ROUNDUP
NATIONAL WEATHER SERVICE CLEVELAND, OH
400 AM EDT TUE MAY 23 2017

NOTE: "FAIR" INDICATES FEW OR NO CLOUDS BELOW 12,000 FEET WITH NO
SIGNIFICANT WEATHER AND/OR OBSTRUCTIONS TO VISIBILITY.

OHZ001>008-015>018-024>027-034-035-043-044-230900-
   NORTHWEST OHIO

CITY           SKY/WX    TMP DP  RH WIND       PRES   REMARKS
DEFIANCE       CLOUDY    55  48  77 S3        29.92F
FINDLAY        CLEAR     54  46  74 S6        29.93F
TOLEDO EXPRESS CLOUDY    55  49  80 S5        29.91F
TOLEDO EXEC    PTCLDY    54  50  86 S8        29.93F
LIMA           CLOUDY    53  50  89 S5        29.94F
$$

OHZ009>014-019>023-028>033-038-089-230900-
   NORTHEAST OHIO

CITY           SKY/WX    TMP DP  RH WIND       PRES   REMARKS
CLE-HOPKINS    MOCLDY    57  47  69 S9        29.96F
CLE-LAKEFRONT  PTCLDY    57  46  66 SE7       29.93F
CUY CO. ARPT   NOT AVBL
LORAIN-ELYRIA  PTCLDY    51  44  77 S3        29.95F
ASHTABULA      CLOUDY    50  48  93 S3        29.97F
AKRON-CANTON   CLOUDY    54  45  71 CALM      29.97F
WOOSTER        PTCLDY    50  47  89 CALM      29.97F
MANSFIELD      PTCLDY    51  47  86 S3        29.96F
YOUNGSTOWN     CLOUDY    50  44  80 S3        29.99F
$$

OHZ042-051>053-060>062-070>072-077>081-230900-
  SOUTHWEST OHIO

CITY           SKY/WX    TMP DP  RH WIND       PRES   REMARKS
CINC-COVINGTON CLOUDY    54  47  77 CALM      29.92F
CINC-LUNKEN    PTCLDY    50  50 100 CALM      29.94F
HAMILTON       CLOUDY    50  49  96 CALM      29.94F
DAYTON         CLOUDY    53  46  77 CALM      29.93F
WRIGHT-PAT AFB CLOUDY    51  49  92 CALM      29.93F
DAYTON GENERAL PTCLDY    52  46  80 CALM      29.92F
WILMINGTON     CLOUDY    53  47  79 E5        29.92F
$$

OHZ036-037-039>041-045>050-054>059-063>069-073>076-082>088-230900-
  CENTRAL AND SOUTHEAST OHIO

CITY           SKY/WX    TMP DP  RH WIND       PRES   REMARKS
COLUMBUS       CLOUDY    53  48  83 CALM      29.94F
OSU AIRPORT    MOCLDY    51  48  89 CALM      29.94F
BOLTON FIELD   CLOUDY    51  49  93 CALM      29.95F
RICKENBACK AFB CLOUDY    51  49  95 CALM      29.94F
NEWARK         MOCLDY    51  48  89 CALM      29.95F
MARION         CLOUDY    51  46  83 S5        29.95F
LANCASTER      CLOUDY    52  49  89 CALM      29.95F
ZANESVILLE     MOCLDY    50  47  89 CALM      29.95F
NEW PHILLY     NOT AVBL
$$



USA.gov is the U.S. government's official web portal to all federal, state and local government web resources and services.